Wetbulb
71.45 69.92 68.77 64.98 52.44 53.91 50.81 53.67 59.01 57.53 57.93 62.43 62.88 61.04 59.22 60.37 58.14 52.80 65.28 69.28 71.21 71.71 72.62 73.38 74.38 73.60 73.38 73.14 72.82 72.79 72.71 72.53 72.48 72.48 72.31 72.01 71.81 71.85 71.81 71.84 71.94 72.43 73.49 74.58 74.04 74.47 74.92 75.03 74.89
66.47 67.70 64.14 57.94 50.71 48.61 50.41 56.52 56.76 59.35 61.60 63.46 62.99 62.19 60.25 58.64 62.69 62.84 63.05 66.82 71.65 71.99 71.59 72.22 73.95 73.49 73.01 72.64 72.50 72.58 72.58 72.35 72.24 72.12 71.85 71.52 71.17 70.92 70.98 71.01 71.22 71.39 72.20 72.52 73.45 73.90 74.30 74.54 74.81
64.25 66.42 57.44 54.00 51.29 49.49 50.36 57.06 58.50 61.31 63.43 62.19 60.72 63.60 62.48 61.06 64.50 64.73 68.49 68.78 70.91 70.70 71.17 71.79 73.43 73.25 73.00 72.61 72.28 71.85 71.73 71.85 71.93 71.76 71.54 71.19 70.91 70.44 70.24 70.07 70.34 70.54 70.70 71.67 72.18 73.20 73.47 73.35 73.57
60.26 60.84 59.92 52.67 48.92 53.89 55.12 58.85 60.43 60.07 61.76 62.31 61.38 58.26 63.85 67.32 66.35 68.30 69.60 70.19 69.81 69.76 70.68 71.77 72.77 72.74 72.56 72.46 72.18 71.98 71.88 71.57 70.99 70.68 70.63 70.27 70.08 70.13 69.88 69.51 69.17 68.95 69.36 69.72 69.96 70.31 70.78 70.87 70.91
63.22 58.08 52.74 51.59 49.75 53.34 58.01 59.65 61.53 59.51 59.66 60.17 61.44 58.93 60.75 66.10 68.87 69.19 68.99 69.25 68.15 68.04 68.60 69.72 71.71 71.39 71.01 70.71 70.88 70.62 70.33 70.23 70.01 70.13 70.23 70.05 69.95 69.82 69.21 68.87 68.92 68.47 68.04 68.07 68.42 69.18 69.19 69.21 69.29
56.43 57.80 49.07 48.35 50.52 54.36 58.89 60.75 59.91 59.41 59.88 60.38 59.86 59.97 61.18 66.92 66.80 67.78 68.41 67.65 67.95 66.69 67.13 67.72 69.96 70.07 69.90 69.66 69.22 68.70 68.27 67.77 66.94 66.81 66.53 67.03 67.58 68.06 69.18 68.98 69.08 69.25 69.39 68.69 67.98 67.67 68.05 68.52 68.50
55.34 50.68 49.74 51.26 50.81 52.79 58.11 61.86 60.13 59.02 59.03 59.10 62.16 58.60 62.02 64.42 67.24 68.00 68.04 67.84 67.35 67.33 66.95 66.29 65.43 66.39 68.16 67.76 66.87 66.31 65.90 65.83 65.82 66.17 67.32 66.31 66.63 68.11 68.14 68.41 68.74 68.91 69.01 69.97 69.96 68.88 68.37 67.55 67.90
56.42 53.77 52.26 51.91 51.55 53.68 61.58 61.12 61.75 60.71 59.50 64.29 63.89 57.77 58.84 64.28 67.18 66.59 65.25 64.54 63.34 63.33 61.37 57.97 58.36 59.87 61.06 61.82 65.25 64.82 65.29 65.51 65.82 66.23 66.84 65.64 64.38 65.34 66.12 68.51 68.35 68.74 68.30 68.51 68.76 69.87 69.20 68.40 68.12
60.13 52.38 49.31 50.69 52.16 54.55 60.59 57.77 60.53 62.00 60.07 61.09 61.60 61.80 63.89 65.05 64.45 61.15 59.37 57.96 55.72 56.87 55.64 56.62 56.98 56.60 56.78 59.84 62.25 63.21 65.45 66.51 65.71 62.34 64.58 59.17 56.00 58.33 61.76 66.48 66.96 67.50 67.70 67.81 68.61 68.96 68.75 68.72 68.87
55.75 49.00 52.02 56.48 56.25 56.66 58.81 58.54 59.02 58.33 58.42 58.93 59.82 61.32 62.99 63.81 61.76 58.89 57.19 56.86 57.33 58.19 58.10 57.66 57.40 58.16 57.63 60.02 57.04 56.44 58.20 56.61 56.12 56.15 56.82 55.38 55.23 59.55 60.23 61.20 63.37 64.24 66.12 66.24 67.30 67.48 68.04 67.29 64.54
56.26 51.00 56.14 57.40 58.25 60.58 57.96 57.99 59.37 56.78 54.75 58.35 57.33 56.04 57.51 58.04 58.06 57.71 57.87 57.89 56.78 58.75 57.92 58.02 57.44 57.33 57.56 56.82 56.04 56.42 56.01 55.61 55.12 55.99 55.34 54.80 55.56 54.96 55.55 55.16 56.11 57.73 61.41 59.06 60.67 62.76 62.87 63.19 62.60
54.89 58.44 59.59 60.42 62.02 60.47 57.69 58.64 56.19 57.04 56.81 60.02 58.22 56.86 56.98 56.42 56.66 57.02 56.79 57.93 57.79 56.53 57.61 58.44 58.18 56.96 57.79 56.82 55.87 55.23 55.29 54.44 53.57 54.99 55.19 53.76 53.40 53.07 52.67 53.11 54.07 55.18 57.46 56.70 57.99 57.03 58.42 59.15 58.67
55.65 56.71 59.76 60.82 59.60 58.94 59.23 56.83 56.24 56.59 58.58 59.20 58.09 55.91 55.46 56.13 56.43 56.87 57.93 57.70 56.98 57.16 58.20 58.58 58.14 56.43 56.36 55.37 54.96 54.81 53.38 53.03 52.69 53.38 53.54 52.68 51.57 51.45 51.84 51.32 51.94 54.49 54.80 56.37 56.28 57.35 57.14 57.59 60.08
55.96 56.43 57.94 59.05 58.81 58.09 56.04 56.16 57.35 57.43 58.69 57.08 55.62 54.07 54.60 55.71 55.84 55.44 57.30 57.61 59.61 59.54 58.56 57.51 56.46 55.08 54.27 54.09 53.61 54.37 53.62 51.62 52.74 52.36 52.21 51.61 50.33 50.08 50.24 50.31 51.02 50.41 52.82 53.70 55.66 57.25 55.67 54.91 55.13
58.34 51.93 54.92 53.42 58.59 57.43 57.91 54.64 54.01 58.26 58.26 55.86 54.05 53.22 54.71 55.24 56.40 56.60 59.22 59.24 58.80 58.39 58.00 56.55 55.76 52.89 52.50 52.49 53.46 52.99 52.72 52.56 51.80 51.59 51.70 51.61 50.09 49.41 48.59 48.90 49.35 49.49 51.21 52.00 54.44 55.06 56.15 56.00 56.20
53.70 54.46 46.94 50.03 57.09 58.41 57.45 50.39 55.45 58.11 56.68 54.94 53.66 53.02 54.36 55.55 57.39 59.92 60.26 59.05 59.40 56.55 55.00 53.98 55.24 52.60 52.32 51.90 52.11 51.09 51.49 50.85 50.44 50.32 50.37 51.77 51.61 50.94 49.40 48.99 49.14 49.52 49.99 51.43 52.14 54.02 53.39 53.90 53.82
50.17 43.32 47.30 51.26 54.60 55.48 54.48 51.79 56.16 58.91 57.40 55.65 54.85 53.39 53.98 55.15 58.63 59.85 60.08 58.26 57.07 54.91 53.75 52.76 52.67 51.45 51.65 52.20 51.45 50.56 50.64 51.28 50.15 49.68 49.64 51.45 52.10 53.43 49.93 49.91 50.13 50.05 49.83 50.74 51.65 51.53 51.26 52.84 51.54
46.15 45.22 47.70 48.24 52.59 53.25 52.30 52.50 56.26 57.93 57.70 56.61 56.56 55.89 54.63 56.81 57.62 59.58 58.10 58.07 56.82 55.26 53.58 52.81 52.28 51.76 50.94 51.10 51.14 50.28 50.03 49.93 50.12 49.55 50.15 51.02 51.90 53.54 51.53 50.82 51.24 51.14 50.19 49.96 49.88 49.68 49.96 50.68 50.89
52.05 49.07 48.73 50.82 51.62 50.43 49.97 51.01 53.23 55.52 56.86 56.39 56.22 55.66 56.61 57.33 59.03 58.58 57.79 58.02 56.70 55.38 53.33 52.35 51.25 51.72 50.58 49.94 49.11 49.15 48.77 48.72 49.64 49.29 50.66 51.63 52.51 52.82 51.84 51.23 51.31 51.10 49.98 49.70 49.75 49.68 49.47 48.80 49.83
52.83 49.17 48.00 50.38 52.27 51.53 50.64 49.78 52.88 54.85 55.42 55.62 54.91 55.42 55.95 55.77 56.30 56.56 56.92 56.68 56.11 54.31 53.20 51.92 51.30 51.05 50.34 50.33 49.98 50.14 49.60 49.15 49.12 49.09 49.65 51.19 52.34 53.19 52.95 51.15 50.85 50.63 50.00 49.79 49.26 48.44 47.67 48.21 49.97
49.31 48.98 48.51 48.73 51.40 51.90 49.01 46.10 50.18 53.80 54.85 55.46 55.81 56.38 56.68 55.29 55.77 55.38 55.50 55.80 55.29 53.74 52.57 51.57 51.15 51.21 50.65 50.55 50.51 50.18 50.05 48.30 47.91 48.81 49.09 50.55 52.72 53.61 52.77 52.31 51.56 50.83 50.01 49.35 48.89 49.02 48.06 46.91 48.30
46.77 53.21 53.16 50.08 46.94 41.90 48.93 38.72 47.89 51.15 50.05 50.63 51.59 52.49 53.52 56.49 56.39 55.66 55.11 55.09 54.21 52.98 53.41 51.86 51.38 50.62 50.83 50.26 49.49 47.90 47.47 46.18 47.47 48.14 49.32 50.21 51.91 52.08 53.40 52.55 52.02 50.93 50.52 49.58 49.33 51.95 49.24 48.12 47.69
49.55 54.38 50.56 50.11 46.22 44.49 44.76 38.53 44.47 48.58 47.97 50.46 51.16 52.67 53.60 54.18 55.56 55.65 55.52 55.19 52.51 54.36 51.92 51.80 50.81 50.22 50.51 50.53 49.86 49.34 48.38 48.42 49.40 49.24 48.93 48.94 49.80 50.99 52.70 52.02 51.26 50.92 51.64 50.19 50.00 49.98 49.40 49.73 49.15
53.73 49.57 48.21 45.37 43.05 36.19 41.08 39.55 40.42 44.80 48.77 51.14 52.63 52.86 53.71 54.68 55.48 55.50 55.83 52.79 54.10 53.11 52.51 51.07 49.91 48.91 49.39 49.66 50.52 49.13 48.81 48.87 48.22 48.24 48.14 48.68 48.85 49.90 50.54 51.00 50.56 50.80 52.01 50.98 50.92 50.56 50.25 50.06 50.46
47.65 41.27 35.01 34.32 35.77 37.84 45.14 39.57 40.62 47.81 50.78 50.98 51.46 52.53 53.17 52.49 53.89 54.67 51.26 50.47 50.18 50.20 49.99 50.31 48.86 48.19 49.55 49.01 49.89 50.38 49.89 49.12 48.05 47.95 48.19 48.01 48.30 48.84 49.63 49.49 50.02 50.50 50.89 51.60 52.31 53.49 53.21 50.24 49.39
45.88 40.98 35.74 30.30 32.36 35.75 43.25 37.17 40.59 48.73 51.49 51.64 51.78 51.36 52.03 54.03 54.38 52.21 49.84 49.22 48.62 49.82 48.39 49.32 48.12 47.82 48.58 49.66 52.54 51.90 52.35 51.43 49.40 48.84 49.03 48.62 48.40 49.32 49.81 49.73 50.61 51.26 53.31 52.67 54.10 53.80 52.91 51.47 50.23
46.32 42.42 43.69 38.82 39.11 36.11 39.98 45.16 48.24 52.09 50.37 51.33 50.60 51.04 51.06 51.11 51.80 50.70 49.80 50.90 50.08 47.82 47.61 48.04 48.01 47.92 47.96 50.99 50.12 50.56 52.61 50.22 48.89 49.52 48.87 49.19 49.82 51.45 51.00 50.32 49.97 50.58 51.71 51.71 52.00 51.63 52.85 53.90 53.82
47.58 49.27 39.95 38.02 30.78 31.41 37.35 38.33 40.01 43.71 47.14 50.00 51.11 50.18 50.35 52.91 51.72 50.20 48.71 48.33 47.64 47.82 47.89 48.25 48.44 48.14 48.60 49.60 51.55 51.19 50.77 51.28 50.86 49.83 49.80 51.59 49.63 49.78 49.72 50.34 50.51 50.31 50.94 50.99 50.42 49.85 51.71 53.19 53.73
43.96 41.49 42.77 40.84 38.59 33.38 34.71 37.15 44.01 42.17 43.73 47.14 48.14 50.75 50.92 51.00 49.38 48.37 48.90 49.26 48.19 47.87 47.72 48.22 48.00 47.93 48.08 50.87 51.62 50.38 50.65 51.38 50.93 50.07 50.15 50.37 48.86 48.81 49.39 50.16 49.75 50.38 51.28 51.49 50.22 50.39 52.65 51.18 52.22
46.35 42.99 42.27 36.78 35.05 37.58 35.81 36.93 48.21 43.65 43.60 44.92 45.90 50.26 49.24 49.33 48.07 48.66 47.61 47.53 47.44 46.93 47.61 47.79 48.29 47.88 49.08 49.40 51.66 50.36 50.14 51.00 49.83 50.08 50.21 50.36 50.41 48.52 49.41 50.26 48.91 50.39 53.99 52.62 52.25 52.72 51.58 52.85 52.10
MSLP
1012.57 1012.42 1012.18 1013.10 1015.36 1017.07 1016.27 1015.53 1014.45 1014.32 1014.93 1015.58 1015.29 1016.02 1017.35 1017.84 1018.79 1020.75 1021.23 1020.56 1020.07 1020.02 1019.81 1019.54 1019.44 1019.45 1019.42 1019.41 1019.40 1019.41 1019.37 1019.43 1019.39 1019.35 1019.20 1019.17 1019.10 1019.12 1019.02 1019.00 1018.87 1018.80 1018.63 1018.56 1018.53 1018.49 1018.51 1018.66 1018.70
1012.62 1012.71 1013.20 1014.76 1016.85 1017.38 1016.43 1015.28 1014.94 1014.64 1015.36 1015.49 1015.95 1016.88 1017.39 1018.99 1019.62 1020.51 1021.12 1020.39 1020.16 1020.24 1020.20 1019.90 1019.75 1019.69 1019.71 1019.74 1019.70 1019.56 1019.49 1019.46 1019.42 1019.46 1019.46 1019.42 1019.37 1019.38 1019.27 1019.17 1019.00 1018.93 1018.88 1018.71 1018.68 1018.73 1018.66 1018.71 1018.85
1012.23 1012.52 1014.49 1016.53 1018.43 1018.16 1017.20 1015.76 1015.48 1015.62 1015.46 1015.55 1016.61 1017.54 1018.24 1019.45 1020.13 1020.71 1020.32 1020.65 1020.62 1020.66 1020.46 1020.31 1020.18 1020.08 1020.00 1020.02 1019.99 1019.85 1019.86 1019.75 1019.73 1019.79 1019.77 1019.72 1019.64 1019.63 1019.52 1019.37 1019.27 1019.28 1019.19 1019.18 1019.05 1018.93 1018.92 1018.89 1019.10
1011.72 1013.40 1015.74 1017.75 1019.19 1018.74 1018.12 1016.89 1015.52 1015.97 1016.22 1016.52 1017.29 1018.21 1019.38 1019.56 1019.72 1020.28 1020.70 1020.73 1020.71 1020.94 1020.79 1020.67 1020.55 1020.48 1020.48 1020.37 1020.31 1020.24 1020.16 1020.09 1020.03 1019.96 1019.93 1019.99 1019.95 1019.80 1019.71 1019.66 1019.55 1019.46 1019.46 1019.46 1019.37 1019.24 1019.15 1018.97 1019.10
1012.50 1014.51 1016.31 1018.35 1019.46 1019.10 1018.32 1017.77 1016.55 1016.20 1017.03 1017.55 1017.61 1019.29 1019.92 1020.12 1020.09 1020.56 1020.84 1021.07 1021.27 1021.42 1021.29 1021.22 1021.08 1020.98 1020.89 1020.84 1020.70 1020.65 1020.56 1020.50 1020.43 1020.29 1020.15 1020.14 1020.12 1020.00 1019.94 1019.80 1019.76 1019.74 1019.65 1019.46 1019.46 1019.36 1019.21 1019.06 1018.94
1013.75 1015.25 1017.09 1018.67 1019.76 1018.98 1017.89 1017.68 1017.14 1017.10 1017.94 1018.40 1018.83 1019.69 1020.97 1020.95 1020.80 1021.11 1021.27 1021.69 1021.82 1021.83 1021.82 1021.65 1021.47 1021.38 1021.33 1021.22 1021.13 1021.00 1020.85 1020.73 1020.66 1020.56 1020.46 1020.30 1020.14 1019.95 1020.08 1019.88 1019.90 1019.78 1019.68 1019.65 1019.50 1019.38 1019.29 1019.22 1019.05
1014.16 1016.40 1017.90 1017.59 1018.20 1018.48 1017.51 1017.60 1017.59 1017.85 1018.29 1018.96 1019.30 1020.06 1021.47 1021.46 1021.23 1021.49 1021.69 1022.02 1022.31 1022.30 1022.29 1022.23 1022.05 1021.84 1021.70 1021.63 1021.47 1021.33 1021.11 1020.84 1020.70 1020.63 1020.58 1020.47 1020.27 1020.14 1020.08 1019.88 1019.84 1019.76 1019.65 1019.67 1019.58 1019.38 1019.30 1019.23 1019.14
1014.56 1016.34 1018.02 1018.25 1018.38 1017.70 1017.13 1017.54 1018.39 1018.53 1019.57 1019.75 1019.89 1020.61 1021.66 1021.85 1021.66 1021.86 1022.21 1022.44 1022.76 1022.80 1022.84 1022.86 1022.71 1022.54 1022.39 1022.23 1021.85 1021.67 1021.49 1021.29 1020.99 1020.74 1020.65 1020.57 1020.50 1020.35 1020.27 1020.06 1019.88 1019.79 1019.67 1019.58 1019.43 1019.32 1019.22 1019.18 1019.04
1013.68 1015.93 1017.04 1016.90 1017.61 1017.14 1017.13 1017.95 1019.45 1019.89 1020.09 1020.45 1020.99 1021.13 1021.78 1022.11 1022.14 1022.33 1022.63 1023.05 1023.31 1023.39 1023.33 1023.25 1023.02 1022.97 1022.85 1022.59 1022.45 1022.21 1021.93 1021.65 1021.37 1021.13 1020.81 1020.86 1020.87 1020.63 1020.53 1020.29 1020.05 1019.98 1019.81 1019.70 1019.50 1019.32 1019.17 1019.17 1019.11
1014.33 1015.84 1015.71 1016.05 1016.29 1016.58 1017.29 1017.75 1019.06 1020.05 1020.58 1021.15 1021.41 1021.73 1021.80 1021.93 1022.51 1022.52 1022.97 1023.50 1023.76 1023.92 1023.85 1023.55 1023.34 1023.20 1022.98 1022.84 1022.84 1022.62 1022.39 1022.22 1022.03 1021.54 1021.32 1021.26 1021.21 1021.02 1020.93 1020.73 1020.55 1020.38 1019.92 1019.71 1019.39 1019.23 1019.09 1019.09 1019.27
1015.30 1016.38 1015.58 1015.81 1016.70 1017.02 1018.00 1018.46 1019.48 1020.51 1021.31 1021.57 1021.98 1022.30 1022.27 1022.27 1022.65 1022.88 1023.06 1023.42 1023.69 1023.82 1024.02 1023.80 1023.59 1023.48 1023.18 1023.01 1022.71 1022.66 1022.64 1022.43 1022.19 1021.89 1021.76 1021.63 1021.55 1021.53 1021.38 1021.19 1021.01 1020.86 1020.36 1020.14 1019.78 1019.48 1019.39 1019.30 1019.42
1014.80 1016.03 1015.18 1016.45 1017.11 1017.85 1018.25 1018.74 1019.87 1020.51 1021.25 1021.89 1022.56 1022.81 1022.84 1023.07 1023.30 1023.45 1023.80 1023.98 1024.06 1024.15 1023.98 1023.91 1023.92 1023.96 1023.65 1023.35 1023.21 1023.01 1022.84 1022.63 1022.72 1022.61 1022.31 1022.09 1022.06 1021.95 1021.85 1021.74 1021.46 1021.13 1020.63 1020.43 1020.25 1020.00 1019.57 1019.40 1019.36
1014.06 1015.99 1016.40 1015.39 1016.37 1016.70 1017.39 1018.45 1020.03 1021.39 1021.58 1022.43 1022.97 1023.37 1023.53 1023.36 1023.41 1023.86 1024.06 1024.21 1024.29 1024.39 1024.40 1024.80 1024.70 1024.48 1024.22 1023.90 1023.52 1023.05 1022.84 1022.73 1022.85 1022.78 1022.67 1022.49 1022.49 1022.45 1022.18 1021.88 1021.71 1021.42 1021.03 1020.67 1020.45 1019.96 1019.65 1019.38 1019.18
1015.02 1015.39 1016.58 1017.02 1016.77 1016.89 1018.09 1019.84 1019.84 1022.01 1022.35 1021.85 1023.11 1023.91 1023.96 1023.71 1023.64 1024.02 1024.04 1024.15 1024.32 1024.49 1024.62 1024.70 1025.33 1025.15 1024.63 1024.23 1023.77 1023.42 1022.90 1022.94 1022.91 1022.94 1022.84 1022.71 1022.60 1022.57 1022.53 1022.26 1021.87 1021.71 1021.35 1020.96 1020.59 1020.10 1019.93 1019.69 1019.07
1014.95 1015.77 1016.19 1016.58 1016.52 1017.16 1018.12 1020.06 1021.03 1022.00 1022.66 1023.02 1022.39 1023.32 1023.57 1023.72 1023.74 1023.91 1023.93 1024.01 1024.20 1024.57 1024.73 1024.85 1024.75 1025.29 1024.98 1024.51 1024.10 1023.69 1023.29 1023.08 1023.15 1023.19 1023.13 1022.94 1022.67 1022.43 1022.47 1022.40 1022.14 1021.77 1021.37 1021.03 1020.58 1020.09 1019.86 1019.80 1019.11
1015.20 1016.05 1016.46 1016.79 1016.50 1017.48 1018.02 1020.73 1021.57 1021.76 1021.85 1021.97 1021.93 1022.04 1023.49 1023.51 1023.51 1023.44 1023.80 1024.04 1024.37 1024.75 1024.94 1025.00 1024.81 1025.09 1025.30 1024.79 1024.36 1024.20 1023.75 1023.46 1023.37 1023.22 1022.92 1022.85 1022.54 1022.30 1022.16 1022.27 1021.96 1021.59 1021.31 1020.95 1020.60 1020.28 1019.93 1019.48 1019.33
1015.63 1016.11 1016.47 1016.21 1017.35 1018.08 1018.77 1020.97 1021.81 1021.94 1021.85 1021.84 1022.35 1022.70 1022.74 1023.33 1023.17 1023.21 1023.77 1024.17 1024.49 1024.87 1025.10 1025.10 1025.10 1025.28 1025.26 1024.87 1024.55 1024.37 1023.90 1023.57 1023.37 1023.11 1022.96 1022.62 1022.55 1022.21 1022.12 1021.98 1021.69 1021.33 1021.04 1020.65 1020.29 1019.85 1019.64 1019.63 1019.45
1015.24 1016.05 1016.00 1016.35 1018.40 1018.64 1019.93 1021.15 1021.73 1022.16 1022.16 1022.37 1022.29 1022.86 1023.11 1023.32 1023.34 1023.73 1023.74 1024.10 1024.51 1024.74 1024.87 1025.10 1025.17 1025.34 1025.20 1024.86 1024.75 1024.43 1023.81 1023.60 1023.44 1023.19 1023.00 1022.68 1022.52 1022.16 1022.00 1021.79 1021.52 1021.15 1020.88 1020.60 1020.29 1020.04 1019.75 1019.64 1019.51
1013.80 1014.80 1015.31 1016.78 1018.48 1019.36 1020.54 1021.39 1022.23 1022.50 1022.43 1022.16 1023.04 1023.54 1023.88 1024.06 1023.80 1023.75 1024.06 1023.93 1024.50 1024.76 1025.05 1025.00 1025.30 1025.41 1025.40 1025.12 1025.02 1024.71 1024.48 1023.92 1023.53 1023.19 1022.90 1022.62 1022.36 1022.09 1021.93 1021.70 1021.34 1020.97 1020.85 1020.56 1020.25 1020.02 1019.79 1019.56 1019.29
1013.12 1014.21 1015.48 1017.61 1018.46 1020.02 1021.69 1022.16 1022.70 1022.84 1023.00 1022.59 1023.36 1023.63 1023.86 1024.07 1024.27 1023.98 1024.22 1024.19 1024.47 1024.89 1025.11 1025.46 1025.54 1025.41 1025.28 1025.11 1024.93 1024.74 1024.48 1024.00 1023.84 1023.25 1022.87 1022.64 1022.21 1021.92 1021.66 1021.56 1021.23 1020.82 1020.61 1020.26 1020.04 1019.87 1019.84 1019.61 1019.22
1012.62 1012.85 1013.66 1015.83 1018.70 1020.33 1021.23 1022.45 1023.37 1023.50 1023.67 1023.65 1023.53 1023.16 1023.81 1023.93 1024.24 1024.06 1024.13 1024.43 1024.74 1024.85 1025.53 1025.44 1025.34 1025.17 1024.91 1024.82 1024.75 1024.28 1023.93 1023.90 1023.76 1023.35 1023.12 1022.66 1022.09 1021.79 1021.52 1021.30 1021.00 1020.67 1020.38 1020.09 1019.80 1019.66 1019.62 1019.54 1019.12
1012.00 1011.94 1012.84 1016.01 1017.96 1020.38 1020.98 1023.17 1023.86 1023.75 1024.17 1024.21 1023.82 1023.96 1024.08 1024.18 1024.16 1024.14 1024.13 1024.42 1024.60 1025.07 1025.40 1025.18 1025.17 1024.70 1024.51 1024.44 1024.45 1024.54 1024.45 1024.58 1024.21 1024.02 1023.43 1022.73 1022.09 1021.83 1021.42 1021.13 1020.83 1020.52 1020.18 1019.78 1019.41 1019.19 1019.17 1019.22 1019.06
1011.94 1012.21 1013.78 1015.54 1018.44 1020.22 1021.47 1022.39 1023.49 1023.88 1024.19 1024.42 1024.26 1024.27 1024.22 1024.20 1024.16 1024.06 1024.08 1024.09 1024.58 1024.80 1025.29 1024.72 1024.63 1024.58 1024.48 1024.39 1024.28 1024.43 1024.40 1024.59 1024.25 1023.79 1023.32 1022.84 1022.27 1021.80 1021.37 1021.04 1020.65 1020.33 1019.80 1019.42 1019.09 1018.86 1018.79 1018.69 1018.60
1011.95 1012.75 1014.81 1016.54 1018.74 1021.60 1022.52 1023.02 1023.59 1023.75 1023.78 1023.62 1024.01 1023.97 1023.95 1023.83 1023.86 1023.71 1023.68 1024.21 1024.64 1024.76 1024.71 1024.83 1024.93 1024.71 1024.51 1024.35 1024.24 1024.21 1024.48 1024.52 1024.25 1023.76 1023.46 1022.94 1022.49 1021.90 1021.40 1020.99 1020.67 1020.20 1019.69 1019.48 1019.07 1018.75 1018.43 1018.27 1018.10
1012.31 1014.04 1016.01 1018.14 1020.54 1022.72 1022.76 1022.95 1023.36 1023.06 1022.94 1023.13 1023.37 1023.61 1023.77 1023.54 1023.35 1023.37 1023.92 1024.35 1024.62 1024.88 1024.99 1024.97 1024.95 1024.71 1024.46 1024.15 1024.14 1024.21 1024.31 1024.13 1023.87 1023.59 1023.37 1023.01 1022.55 1022.02 1021.56 1021.16 1020.72 1020.21 1019.73 1019.31 1018.88 1018.71 1018.41 1018.18 1018.01
1013.60 1014.90 1016.50 1018.81 1021.52 1023.17 1023.15 1023.39 1022.90 1022.58 1022.62 1022.47 1022.71 1023.17 1023.48 1023.72 1023.77 1023.89 1024.11 1024.32 1024.47 1024.73 1024.83 1024.91 1024.83 1024.70 1024.49 1024.22 1023.98 1024.02 1023.87 1023.74 1023.48 1023.26 1022.96 1022.62 1022.25 1021.88 1021.45 1021.04 1020.58 1020.10 1019.56 1019.23 1018.83 1018.69 1018.53 1018.33 1018.06
1014.54 1015.42 1016.40 1019.21 1021.97 1023.43 1024.05 1023.77 1022.90 1022.27 1022.57 1022.88 1023.13 1023.13 1023.38 1023.69 1023.86 1023.63 1023.63 1023.90 1024.27 1024.81 1024.86 1024.78 1024.65 1024.66 1024.43 1024.11 1023.89 1023.68 1023.52 1023.42 1023.28 1022.94 1022.63 1022.34 1021.99 1021.56 1021.23 1020.88 1020.58 1020.10 1019.61 1019.36 1019.01 1018.82 1018.71 1018.42 1017.96
1015.68 1016.25 1017.23 1019.35 1022.08 1023.97 1024.54 1024.30 1023.56 1022.73 1022.32 1022.66 1023.06 1023.34 1023.37 1023.23 1023.47 1023.59 1023.85 1024.10 1024.37 1024.48 1024.61 1024.58 1024.46 1024.44 1024.13 1023.83 1023.65 1023.48 1023.35 1023.11 1022.94 1022.69 1022.33 1022.09 1021.79 1021.49 1021.16 1020.83 1020.53 1020.17 1019.66 1019.41 1019.29 1018.95 1018.72 1018.53 1018.16
1016.94 1017.60 1019.01 1020.51 1022.29 1023.58 1024.34 1024.46 1023.46 1022.92 1022.64 1022.66 1022.73 1022.71 1022.89 1023.17 1023.29 1023.52 1023.81 1023.95 1024.15 1024.55 1024.77 1024.70 1024.52 1024.19 1023.91 1023.57 1023.43 1023.34 1023.21 1022.89 1022.70 1022.46 1022.18 1021.83 1021.67 1021.27 1021.06 1020.81 1020.61 1020.35 1020.06 1019.76 1019.50 1019.17 1018.89 1018.65 1018.46
1017.81 1018.38 1019.43 1021.01 1022.94 1023.76 1024.14 1024.23 1023.20 1023.05 1022.73 1022.54 1022.60 1022.48 1022.57 1022.55 1022.82 1023.43 1023.65 1023.93 1024.25 1024.43 1024.51 1024.49 1024.19 1023.99 1023.48 1023.34 1023.20 1023.13 1022.98 1022.66 1022.65 1022.26 1021.99 1021.48 1021.37 1020.98 1020.91 1020.79 1020.66 1020.45 1020.19 1019.99 1019.72 1019.45 1019.17 1018.91 1018.88
Wind_Speed
6 5 3 5 7 4 1 2 6 5 7 14 15 16 11 11 6 9 2 3 2 3 3 9 13 13 13 13 13 13 13 12 12 13 13 13 13 13 13 12 12 12 11 11 8 8 8 8 10
5 4 5 4 6 1 1 4 11 13 17 17 17 14 12 12 8 12 8 12 5 5 3 5 13 13 13 13 13 13 13 12 12 12 12 12 11 11 11 11 11 11 10 9 8 7 7 7 9
7 2 5 6 4 4 5 12 15 14 7 5 7 9 5 5 13 13 7 11 7 6 5 9 13 13 13 13 12 12 12 12 12 11 10 10 9 8 8 9 9 9 9 8 6 7 6 5 6
5 5 5 7 8 3 4 3 13 10 10 9 11 10 6 6 3 10 14 11 11 7 7 11 13 13 13 13 13 12 12 12 11 10 9 8 7 6 6 6 6 6 6 6 5 4 3 3 3
5 3 5 5 10 6 5 10 4 14 9 8 4 8 5 6 16 15 14 11 10 6 6 6 12 12 11 10 11 11 10 10 10 10 10 8 7 5 4 4 4 4 4 3 4 4 3 3 5
6 3 6 5 5 9 7 3 13 18 18 14 16 9 4 4 11 11 13 10 8 8 5 5 11 11 10 10 9 8 8 8 7 7 6 5 8 0 4 4 4 4 5 5 4 3 4 6 7
7 4 2 12 5 5 4 6 8 10 11 11 10 6 3 3 11 10 12 10 7 6 5 5 5 7 8 7 6 5 6 6 6 5 6 5 9 7 6 4 2 4 4 5 7 7 6 7 8
6 6 3 1 6 5 7 5 7 11 9 4 4 6 6 2 12 12 10 9 6 5 5 4 4 3 3 4 4 3 4 4 3 5 8 11 10 12 15 7 5 7 6 8 9 8 7 9 10
6 5 4 9 8 5 8 6 5 6 7 5 4 7 7 9 7 11 10 8 5 6 6 6 6 5 5 3 5 9 10 11 8 7 8 7 5 6 9 14 10 10 9 10 11 10 8 8 10
7 3 3 4 5 5 6 8 7 5 9 7 10 8 6 9 6 9 7 5 4 5 5 4 6 7 6 4 3 5 7 5 4 5 6 5 6 7 9 12 16 17 16 15 13 11 11 9 2
4 2 7 3 6 15 8 13 7 11 5 5 10 7 7 14 8 9 10 8 7 5 3 4 5 5 6 6 5 4 3 4 4 6 6 6 5 4 5 4 4 4 11 6 7 6 3 2 3
7 4 9 19 13 6 2 7 6 5 3 9 8 7 7 11 9 8 8 7 6 5 4 6 7 7 7 4 4 4 4 3 4 5 6 5 4 5 4 3 4 4 5 6 5 4 5 4 4
4 5 11 24 18 11 14 11 10 11 13 12 9 8 7 7 7 6 6 5 7 5 6 7 7 7 6 6 4 4 4 4 2 4 5 4 4 5 5 4 2 4 4 5 5 5 5 5 4
4 6 6 5 9 8 16 12 7 11 12 16 11 6 3 7 6 4 4 5 7 7 8 8 7 7 6 5 6 5 5 3 4 3 4 5 3 3 4 5 5 4 4 5 5 4 4 5 3
5 3 3 5 2 5 18 7 7 13 11 10 14 9 8 7 7 6 6 7 6 7 7 6 4 5 8 7 6 5 5 5 3 3 3 3 2 2 3 3 4 4 4 6 5 3 4 4 3
5 3 2 4 5 5 2 6 14 14 15 13 16 14 10 9 8 9 9 8 7 7 8 5 6 7 7 7 5 4 4 3 2 1 2 4 5 4 4 3 4 4 4 3 3 4 3 1 3
3 4 2 6 5 5 5 11 12 11 11 12 9 11 12 9 9 10 8 7 7 7 6 5 6 5 5 6 5 5 4 3 2 2 2 5 5 6 3 4 5 5 4 4 3 3 2 2 4
5 5 5 6 5 9 15 10 11 7 7 12 10 12 9 8 10 7 10 8 7 7 6 5 4 3 5 4 4 4 4 3 2 2 3 5 4 6 4 4 5 4 4 4 3 3 2 3 3
6 4 6 8 2 11 8 7 5 1 7 13 5 15 7 2 4 10 7 7 6 5 5 5 4 1 2 2 3 3 3 4 3 3 5 4 4 5 5 4 5 4 3 4 5 3 3 3 1
5 3 1 11 14 13 8 6 6 11 9 17 17 14 10 6 6 7 7 6 6 6 5 5 3 0 1 1 2 2 2 3 3 3 5 5 5 5 4 5 5 5 4 5 4 2 2 2 2
5 3 2 5 14 19 7 10 4 8 10 8 10 11 7 7 6 7 7 5 6 7 5 6 5 4 2 3 2 3 2 3 4 4 4 5 6 6 5 6 5 5 4 4 4 3 3 3 2
3 4 5 19 8 4 3 5 6 5 7 7 7 4 5 7 10 8 6 6 7 5 6 7 6 4 3 2 2 2 1 2 2 3 4 5 5 6 6 6 5 5 4 5 4 3 2 2 4
7 3 6 19 11 6 7 7 3 4 3 9 10 6 5 6 5 8 6 7 3 8 7 7 5 2 2 2 2 2 3 2 3 3 6 5 5 5 6 6 6 6 4 5 5 4 3 3 3
3 3 13 6 6 6 7 3 4 2 6 4 6 7 6 9 7 7 6 7 5 6 7 4 2 3 3 2 3 2 4 5 3 4 4 4 4 4 5 6 5 5 5 5 4 4 3 3 3
12 7 4 5 7 2 7 4 5 5 3 5 7 8 8 5 8 8 6 7 7 7 4 4 4 2 4 3 3 5 6 4 3 4 3 5 4 3 6 5 6 4 5 5 4 4 4 4 3
4 4 6 1 4 2 6 3 5 2 6 6 6 3 8 7 3 3 8 6 7 8 6 4 2 1 5 5 5 4 5 3 3 3 3 3 2 4 4 6 5 6 6 6 5 3 4 4 4
6 4 1 8 5 5 2 3 7 5 3 4 4 7 8 3 7 9 8 4 7 6 5 6 3 4 6 5 5 5 3 4 3 5 3 2 4 3 5 5 5 6 6 6 6 4 4 4 3
5 4 6 5 4 4 2 2 4 7 4 5 6 6 6 8 6 6 6 7 5 6 6 5 4 5 4 5 2 2 4 3 3 3 4 3 4 3 5 6 5 6 6 6 6 5 3 2 4
6 6 6 6 4 5 4 2 5 3 0 4 2 6 9 7 8 7 6 6 7 4 4 4 5 3 3 3 2 2 4 3 3 2 3 2 3 5 5 4 5 5 6 6 5 6 6 5 5
2 4 4 6 1 3 5 2 3 0 5 6 2 6 5 9 7 7 8 7 7 6 6 6 4 5 4 3 1 2 4 4 4 3 4 4 4 3 4 4 4 4 5 5 6 5 6 6 6
Wind_Direction
135 149 92 48 62 30 135 81 131 109 65 78 76 78 84 38 22 121 195 287 224 56 77 99 98 95 94 93 92 90 88 86 86 82 79 74 74 74 73 73 71 67 65 70 95 104 95 100 96
137 154 50 76 67 30 283 115 84 97 120 102 81 96 60 72 67 120 128 219 153 103 77 82 96 95 91 89 88 83 81 79 79 78 77 76 71 68 67 65 63 65 67 68 79 83 81 79 81
152 55 66 69 26 351 327 115 118 123 118 88 104 53 50 83 125 156 193 192 119 89 78 87 89 90 91 87 84 83 83 82 79 77 74 72 70 65 64 63 61 60 64 71 66 71 63 53 72
141 39 55 86 28 275 287 82 117 115 72 56 112 69 75 350 95 127 132 119 97 84 82 88 86 84 82 82 79 76 71 68 68 69 65 60 56 56 51 49 53 58 59 59 63 70 62 22 25
38 50 75 70 4 290 285 307 154 98 93 87 86 97 76 43 108 118 109 101 101 82 70 86 98 95 92 87 83 79 76 69 60 53 46 37 24 19 22 15 8 4 16 44 42 30 17 349 329
55 79 67 79 184 265 283 292 92 93 100 94 85 92 53 139 109 118 111 107 104 101 81 84 99 96 95 96 95 96 93 86 75 68 54 44 11 350 342 335 328 335 332 329 333 333 329 326 322
99 71 141 140 218 297 230 188 69 121 95 72 125 92 94 79 127 115 111 110 101 95 84 59 45 77 87 89 87 85 94 106 101 82 64 38 28 43 332 281 276 290 297 299 296 298 303 307 312
94 101 136 198 181 239 153 90 65 50 78 71 13 143 139 99 117 110 103 104 103 91 84 65 50 50 40 13 58 28 11 2 45 31 50 62 47 35 11 323 261 276 285 282 268 264 280 302 309
122 67 183 176 169 212 152 108 53 56 98 59 26 71 85 106 102 105 104 99 85 75 59 38 20 22 8 357 354 351 335 335 337 9 27 32 34 21 26 22 339 321 303 296 291 281 256 273 297
73 56 256 151 165 107 75 102 117 101 95 78 93 62 66 101 134 115 110 95 79 54 46 50 44 48 43 39 25 12 9 348 5 358 45 35 43 35 38 23 14 5 8 338 298 290 272 291 332
39 338 297 85 88 95 90 65 102 116 56 129 134 115 96 106 103 97 86 92 119 130 82 57 57 44 34 15 8 14 6 0 9 26 39 51 45 29 22 12 2 348 2 357 354 334 321 261 267
130 343 47 47 67 100 86 112 89 73 109 115 111 97 97 98 99 98 91 99 107 105 105 56 39 27 23 22 9 5 7 355 21 31 33 43 29 22 18 8 356 348 345 347 341 332 315 262 260
109 126 93 128 156 129 121 117 104 90 105 104 92 86 97 103 112 94 87 94 88 74 83 58 39 28 10 13 349 347 345 5 56 56 41 44 34 17 356 347 349 341 338 336 316 327 324 344 318
68 82 96 121 164 127 110 121 81 128 133 118 114 112 121 137 142 120 133 142 106 105 92 78 39 15 6 353 350 334 317 32 89 69 55 44 46 34 3 339 329 337 323 314 301 311 318 307 359
94 43 233 338 193 107 116 87 98 145 143 138 136 150 177 184 165 185 156 136 136 81 77 87 81 2 16 4 5 358 358 74 65 58 13 26 40 11 356 334 318 309 306 299 298 299 296 297 9
76 75 293 203 184 104 18 89 145 160 165 161 172 163 182 198 194 159 156 142 106 95 91 80 51 35 3 8 7 6 11 25 93 73 351 346 357 358 352 322 302 288 295 274 278 260 219 339 334
51 267 210 316 83 113 72 135 173 181 175 175 164 193 176 198 159 158 143 134 127 118 121 90 57 41 356 352 357 354 353 4 6 8 336 360 351 347 345 326 305 308 308 313 319 314 3 303 306
212 234 238 225 86 72 86 126 173 197 191 190 177 214 178 176 161 144 141 137 128 136 129 128 88 23 349 346 342 335 342 15 331 330 2 344 334 332 339 323 318 328 326 314 314 304 285 239 263
184 213 220 75 6 61 109 167 208 305 263 220 198 99 166 228 150 154 152 133 138 135 150 134 114 332 5 343 332 339 331 326 330 340 334 338 332 330 332 322 319 320 324 302 297 279 274 292 261
198 182 331 87 111 86 112 99 32 44 44 96 106 164 174 171 178 163 165 162 158 174 187 133 126 249 318 314 289 259 269 285 279 312 313 318 319 320 318 320 314 320 320 319 319 283 289 266 223
225 172 148 143 95 129 95 57 30 77 96 117 156 158 175 169 171 196 191 170 170 199 163 157 177 208 231 263 291 328 357 349 346 342 317 319 309 305 316 310 308 317 313 295 289 275 237 266 282
330 249 251 129 115 173 195 141 28 109 122 151 188 197 217 195 183 214 212 171 195 196 180 163 204 211 240 314 312 8 28 314 275 270 281 300 307 301 304 311 314 311 303 304 289 270 251 219 264
238 221 93 108 109 101 7 81 212 183 189 201 232 226 238 227 232 210 181 195 166 153 181 191 196 287 311 314 309 351 341 274 279 295 320 325 314 313 304 315 328 322 309 309 302 306 288 225 244
259 42 99 94 97 57 303 117 306 4 292 200 217 238 239 220 200 162 219 119 153 170 191 135 171 278 291 341 331 265 255 280 315 309 311 317 314 310 327 326 328 324 328 344 343 341 332 312 282
49 51 1 3 35 86 324 44 249 303 327 265 217 223 221 170 161 180 160 154 175 190 167 172 212 268 293 3 317 250 250 264 261 278 276 310 311 312 317 321 324 321 318 338 329 334 333 337 316
47 140 150 212 145 150 349 15 281 275 320 25 72 151 140 176 195 201 168 179 167 183 185 178 225 312 301 300 279 253 243 252 261 273 283 291 260 274 302 312 322 329 332 337 343 337 342 349 337
326 18 58 102 56 87 309 345 303 285 269 116 140 149 184 183 188 173 183 156 155 169 172 196 189 241 267 297 307 306 306 269 277 294 273 277 280 297 328 323 338 331 337 339 330 339 354 353 329
58 284 22 14 114 116 144 320 279 329 301 197 214 217 204 209 192 199 181 159 169 177 196 198 222 239 274 290 281 315 321 302 276 289 331 261 295 311 320 323 330 335 343 354 354 344 350 60 334
352 15 51 107 96 135 150 287 235 127 72 110 239 207 207 208 195 187 181 189 188 186 200 212 245 263 297 290 290 322 318 312 294 322 306 267 306 311 334 332 340 357 11 5 15 3 349 53 31
353 345 109 110 120 92 124 274 23 236 124 116 176 213 211 203 180 183 185 185 182 193 191 218 240 263 273 258 313 272 290 287 307 282 266 261 257 275 324 346 360 358 14 3 7 1 8 6 48